Tracking 22882 objects as of 18-Apr-2021
HD Live streaming from Space Station
objects crossing your sky now

STARLINK-1927

Track STARLINK-1927 now!
10-day predictions
STARLINK-1927 is classified as:


NORAD ID: 47181
Int'l Code: 2020-088BM
Perigee: 553.2 km
Apogee: 555.5 km
Inclination: 53.1 °
Period: 95.6 minutes
Semi major axis: 6925 km
RCS: Unknown
Launch date: November 25, 2020
Source: United States (US)
Launch site: AIR FORCE EASTERN TEST RANGE (AFETR)
aabbcc
Your satellite tracking list
Your tracking list is empty




NASA's NSSDC Master Catalog

Two Line Element Set (TLE):
1 47181U 20088BM  21108.58335648 -.00002558  00000-0 -15289-3 0  9993
2 47181  53.0552  19.7513 0001602  75.5677 261.1020 15.06397623  1752
Source of the keplerian elements: AFSPC